sat.trackr.live / text

‹ back to catalog

UNKNOWN

NORAD 82164

UNKNOWN UNKNOWN UNKNOWN

§ Identity

Operator
Country
Launch date
Launch site
Launch vehicle
Mass (kg)
RCS (m²)

External: N2YO · Heavens-Above

§ Orbital elements

Epoch: 2026-05-16T10:47:21.056064Z

Period
99.66 min
Inclination
99.2874°
Eccentricity
0.0063625
Mean motion
14.44972775 rev/d
Perigee alt
696.8 km
Apogee alt
787.4 km
Semi-major
7,120.3 km
B*
3.3123e-4
RAAN
352.7077°
Arg perigee
99.4002°
Mean anomaly
19.5457°
Rev number
10,024

§ Raw data

UNKNOWN1 82164U          26136.44954926  .00001131  00000+0  33123-3 0  99922 82164  99.2874 352.7077 0063625  99.4002  19.5457 14.44972775100247

JSON: /api/v1/satellites/82164 · /tle

For live sub-satellite position, see the globe view (requires WebGL).

§ Visibility from observer

Set your observer location to see the next 7 days of passes ≥ 10°. The values pass through the URL so the page stays shareable.

No JS? Fill the form by hand. The geolocation button needs JavaScript.